Phuket, Thailand

6:24 AM ICT on February 20, 2017 (GMT +0700)
Phuket International

Weather History for VTSP - February, 2013

Change the Weather History Date:

Thursday, February 28, 2013

  Actual Average Record
Temperature  
Mean Temperature 84 °F -  
Max Temperature 93 °F 92 °F 102 °F (1998)
Min Temperature 75 °F 76 °F 72 °F (2014)
Cooling Degree Days 19    
Growing Degree Days 34 (Base 50)    
Moisture  
Dew Point 73 °F    
Average Humidity 76    
Maximum Humidity 94    
Minimum Humidity 49    
Precipitation  
Precipitation 0.00 in 0.08 in - ()
Sea Level Pressure  
Sea Level Pressure 29.80 in    
Wind  
Wind Speed 3 mph ()    
Max Wind Speed 14 mph    
Max Gust Speed -    
Visibility 6.0 miles    
Events Thunderstorm    
Averages and records for this station are not official NWS values.
T = Trace of Precipitation, MM = Missing Value Source: Averaged Metar Reports

Daily Weather History Graph

Daily Weather History Graph

Search for Another Location

Airport or City:

Trip Planner

Search our weather history database for the weather conditions in past years. The results will help you decide how hot, cold, wet, or windy it might be!

Date:

Astronomy

Feb. 28, 2013 Rise Set
Actual Time 6:40 AM ICT 6:38 PM ICT
Civil Twilight 6:19 AM ICT 6:59 PM ICT
Nautical Twilight 5:55 AM ICT 7:23 PM ICT
Astronomical Twilight 5:30 AM ICT 7:47 PM ICT
Moon 8:45 PM ICT (2/28) 8:10 AM ICT (2/28)
Length of Visible Light 12h 39m
Length of Day
11h 57m
Waning Gibbous, 94% of the Moon is Illuminated
Feb 28
Waning Gibbous
Mar 5
Last Quarter
Mar 12
New
Mar 20
First Quarter
Mar 27
Full

Hourly Weather History & Observations

Time (ICT) Temp. Heat Index Dew Point Humidity Pressure Visibility Wind Dir Wind Speed Gust Speed Precip Events Conditions
12:00 AM 77.0 °F - 73.4 °F 89% 29.86 in 6.2 mi Calm Calm - N/A   Mostly Cloudy
12:30 AM 77.0 °F - 73.4 °F 89% 29.86 in 6.2 mi Calm Calm - N/A   Mostly Cloudy
1:00 AM 78 °F - 75 °F 88% 29.81 in 6 mi Calm Calm - -   Scattered Clouds
1:00 AM 77.0 °F - 73.4 °F 89% 29.83 in 6.2 mi Calm Calm - N/A   Mostly Cloudy
1:30 AM 77.0 °F - 73.4 °F 89% 29.83 in 6.2 mi Calm Calm - N/A   Mostly Cloudy
2:00 AM 78.8 °F - 73.4 °F 83% 29.80 in 6.2 mi Calm Calm - N/A   Mostly Cloudy
2:30 AM 78.8 °F - 73.4 °F 83% 29.80 in 6.2 mi Calm Calm - N/A   Mostly Cloudy
3:00 AM 77.0 °F - 73.4 °F 89% 29.80 in 6.2 mi Calm Calm - N/A   Mostly Cloudy
3:30 AM 77.0 °F - 73.4 °F 89% 29.80 in 6.2 mi Calm Calm - N/A   Mostly Cloudy
4:00 AM 77.0 °F - 73.4 °F 89% 29.80 in 6.2 mi Calm Calm - N/A   Mostly Cloudy
4:30 AM 75.2 °F - 73.4 °F 94% 29.80 in 6.2 mi Calm Calm - N/A   Mostly Cloudy
5:00 AM 75.2 °F - 73.4 °F 94% 29.80 in 6.2 mi Calm Calm - N/A   Mostly Cloudy
6:30 AM 75.2 °F - 71.6 °F 89% 29.80 in 6.2 mi Calm Calm - N/A   Mostly Cloudy
7:30 AM 75.2 °F - 73.4 °F 94% 29.80 in 6.2 mi Calm Calm - N/A   Mostly Cloudy
8:00 AM 77.0 °F - 73.4 °F 89% 29.80 in 6.2 mi East 3.5 mph - N/A   Scattered Clouds
8:30 AM 82.4 °F 88.2 °F 73.4 °F 74% 29.83 in 6.2 mi ENE 9.2 mph - N/A   Mostly Cloudy
9:00 AM 84.2 °F 90.9 °F 73.4 °F 70% 29.83 in 6.2 mi East 6.9 mph - N/A   Mostly Cloudy
9:30 AM 84.2 °F 90.9 °F 73.4 °F 70% 29.83 in 6.2 mi East 8.1 mph - N/A   Mostly Cloudy
10:00 AM 84.2 °F 90.9 °F 73.4 °F 70% 29.83 in 6.2 mi ENE 11.5 mph - N/A   Mostly Cloudy
10:30 AM 86.0 °F 93.4 °F 73.4 °F 66% 29.83 in 6.2 mi East 13.8 mph - N/A   Mostly Cloudy
11:00 AM 86.0 °F 91.8 °F 71.6 °F 62% 29.83 in 6.2 mi ENE 10.4 mph - N/A   Mostly Cloudy
11:30 AM 86.0 °F 93.4 °F 73.4 °F 66% 29.83 in 6.2 mi ESE 11.5 mph - N/A   Mostly Cloudy
12:00 PM 89.6 °F 98.2 °F 73.4 °F 59% 29.83 in 6.2 mi ENE 11.5 mph - N/A   Mostly Cloudy
12:30 PM 87.8 °F 93.8 °F 71.6 °F 58% 29.83 in 6.2 mi East 11.5 mph - N/A   Mostly Cloudy
1:00 PM 90 °F - 73 °F 49% 29.76 in 6 mi East 9.2 mph - -   Scattered Clouds
1:00 PM 87.8 °F 93.8 °F 71.6 °F 58% 29.80 in 6.2 mi East 9.2 mph - N/A   Mostly Cloudy
1:30 PM 89.6 °F 96.2 °F 71.6 °F 55% 29.77 in 6.2 mi East 9.2 mph - N/A   Mostly Cloudy
2:00 PM 89.6 °F 96.2 °F 71.6 °F 55% 29.77 in 6.2 mi East 9.2 mph - N/A   Mostly Cloudy
2:30 PM 91.4 °F 98.4 °F 71.6 °F 52% 29.77 in 6.2 mi West 10.4 mph - N/A   Mostly Cloudy
3:00 PM 89.6 °F 98.2 °F 73.4 °F 59% 29.74 in 6.2 mi WSW 9.2 mph - N/A   Mostly Cloudy
3:30 PM 89.6 °F 98.2 °F 73.4 °F 59% 29.74 in 6.2 mi WSW 9.2 mph - N/A   Mostly Cloudy
4:00 PM 86.0 °F 93.4 °F 73.4 °F 66% 29.74 in 5.6 mi WNW 8.1 mph - N/A Thunderstorm Thunderstorm
4:30 PM 87.8 °F 95.6 °F 73.4 °F 62% 29.74 in 5.6 mi NW 6.9 mph - N/A Thunderstorm Thunderstorm
5:00 PM 86.0 °F 93.4 °F 73.4 °F 66% 29.74 in 5.6 mi WNW 6.9 mph - N/A   Mostly Cloudy
5:30 PM 84.2 °F 89.6 °F 71.6 °F 66% 29.74 in 5.6 mi WNW 9.2 mph - N/A   Mostly Cloudy
6:00 PM 82.4 °F 88.2 °F 73.4 °F 74% 29.74 in 5.6 mi WNW 6.9 mph - N/A   Mostly Cloudy
6:30 PM 80.6 °F 85.4 °F 73.4 °F 79% 29.77 in 5.6 mi WNW 9.2 mph - N/A   Mostly Cloudy
7:00 PM 82 °F - 75 °F 75% 29.71 in 6 mi WNW 5.8 mph - -   Scattered Clouds
7:00 PM 80.6 °F 85.4 °F 73.4 °F 79% 29.77 in 5.6 mi WNW 6.9 mph - N/A   Mostly Cloudy
7:30 PM 78.8 °F - 73.4 °F 83% 29.77 in 5.6 mi ENE 5.8 mph - N/A   Mostly Cloudy
8:00 PM 78.8 °F - 73.4 °F 83% 29.80 in 5.6 mi ENE 4.6 mph - N/A   Mostly Cloudy
8:30 PM 78.8 °F - 73.4 °F 83% 29.83 in 5.6 mi Calm Calm - N/A   Mostly Cloudy
9:00 PM 78.8 °F - 73.4 °F 83% 29.83 in 5.6 mi SE 3.5 mph - N/A   Mostly Cloudy
9:30 PM 77.0 °F - 73.4 °F 89% 29.83 in 5.6 mi Calm Calm - N/A   Mostly Cloudy
10:30 PM 77.0 °F - 73.4 °F 89% 29.86 in 5.6 mi Calm Calm - N/A   Mostly Cloudy
11:00 PM 77.0 °F - 73.4 °F 89% 29.86 in 5.6 mi Calm Calm - N/A   Mostly Cloudy
11:30 PM 77.0 °F - 73.4 °F 89% 29.86 in 5.6 mi Calm Calm - N/A   Mostly Cloudy